Time,TemperatureF,DewpointF,PressureIn,WindDirection,WindDirectionDegrees,WindSpeedMPH,WindSpeedGustMPH,Humidity,HourlyPrecipIn,Conditions,Clouds,dailyrainin,SoftwareType,DateUTC
2013-07-19 00:12:00,77.0,74.0,30.03,SW,221,0.0,0.0,90,0.00,,,0.00,,2013-07-19 04:12:00,
2013-07-19 00:22:00,76.0,73.0,30.03,SW,221,0.0,0.0,90,0.00,,,0.00,,2013-07-19 04:22:00,
2013-07-19 00:33:00,76.0,73.0,30.03,SW,221,0.0,0.0,90,0.00,,,0.00,,2013-07-19 04:33:00,
2013-07-19 00:44:00,76.0,73.0,30.02,SW,221,0.0,0.0,91,0.00,,,0.00,,2013-07-19 04:44:00,
2013-07-19 00:52:00,76.0,73.0,30.02,SW,221,0.0,0.0,91,0.00,,,0.00,,2013-07-19 04:52:00,
2013-07-19 01:02:00,76.0,74.0,30.01,SW,221,0.0,0.0,92,0.00,,,0.00,,2013-07-19 05:02:00,
2013-07-19 01:22:00,75.0,73.0,30.01,SW,221,0.0,0.0,92,0.00,,,0.00,,2013-07-19 05:22:00,
2013-07-19 01:53:00,75.0,73.0,30.01,SW,229,0.0,4.0,93,0.00,,,0.00,,2013-07-19 05:53:00,
2013-07-19 02:01:00,75.0,73.0,30.01,SW,229,4.0,4.0,94,0.00,,,0.00,,2013-07-19 06:01:00,
2013-07-19 02:11:00,75.0,73.0,30.01,SW,230,4.0,4.0,94,0.00,,,0.00,,2013-07-19 06:11:00,
2013-07-19 02:22:00,75.0,73.0,30.01,SW,230,4.0,4.0,94,0.00,,,0.00,,2013-07-19 06:22:00,
2013-07-19 02:33:00,75.0,73.0,30.01,SW,230,4.0,4.0,94,0.00,,,0.00,,2013-07-19 06:33:00,
2013-07-19 02:43:00,74.0,72.0,30.01,SW,221,1.0,8.0,95,0.00,,,0.00,,2013-07-19 06:43:00,
2013-07-19 02:52:00,74.0,72.0,30.01,SW,223,0.0,8.0,95,0.00,,,0.00,,2013-07-19 06:52:00,
2013-07-19 03:01:00,74.0,72.0,30.01,SW,223,0.0,8.0,95,0.00,,,0.00,,2013-07-19 07:01:00,
2013-07-19 03:12:00,74.0,72.0,30.01,SW,223,0.0,8.0,95,0.00,,,0.00,,2013-07-19 07:12:00,
2013-07-19 03:33:00,74.0,72.0,30.01,SW,224,0.0,0.0,95,0.00,,,0.00,,2013-07-19 07:33:00,
2013-07-19 03:43:00,74.0,72.0,30.01,SW,224,0.0,0.0,95,0.00,,,0.00,,2013-07-19 07:43:00,
2013-07-19 03:53:00,74.0,73.0,30.00,SW,224,0.0,0.0,96,0.00,,,0.00,,2013-07-19 07:53:00,
2013-07-19 04:01:00,74.0,73.0,30.00,SW,224,0.0,0.0,96,0.00,,,0.00,,2013-07-19 08:01:00,
2013-07-19 04:12:00,74.0,73.0,30.00,SW,224,0.0,0.0,96,0.00,,,0.00,,2013-07-19 08:12:00,
2013-07-19 04:22:00,74.0,73.0,30.00,SW,224,0.0,0.0,96,0.00,,,0.00,,2013-07-19 08:22:00,
2013-07-19 04:33:00,74.0,73.0,30.00,SW,224,0.0,0.0,96,0.00,,,0.00,,2013-07-19 08:33:00,
2013-07-19 04:43:00,74.0,73.0,30.00,SW,224,0.0,0.0,97,0.00,,,0.00,,2013-07-19 08:43:00,
2013-07-19 04:52:00,74.0,73.0,30.00,SW,224,0.0,0.0,97,0.00,,,0.00,,2013-07-19 08:52:00,
2013-07-19 05:02:00,74.0,73.0,29.99,SW,223,0.0,0.0,97,0.00,,,0.00,,2013-07-19 09:02:00,
2013-07-19 05:11:00,74.0,73.0,30.00,SW,224,0.0,0.0,97,0.00,,,0.00,,2013-07-19 09:11:00,
2013-07-19 05:32:00,74.0,73.0,29.99,SW,224,0.0,0.0,97,0.00,,,0.00,,2013-07-19 09:32:00,
2013-07-19 05:43:00,74.0,73.0,29.99,SW,223,0.0,0.0,97,0.00,,,0.00,,2013-07-19 09:43:00,
2013-07-19 05:52:00,74.0,73.0,29.99,SW,224,0.0,0.0,97,0.00,,,0.00,,2013-07-19 09:52:00,
2013-07-19 06:01:00,74.0,73.0,29.99,SW,224,0.0,0.0,97,0.00,,,0.00,,2013-07-19 10:01:00,
2013-07-19 06:22:00,74.0,73.0,29.99,SW,224,0.0,0.0,97,0.00,,,0.00,,2013-07-19 10:22:00,
2013-07-19 06:32:00,74.0,73.0,29.98,SW,224,0.0,0.0,97,0.00,,,0.00,,2013-07-19 10:32:00,
2013-07-19 06:43:00,74.0,73.0,29.98,SW,223,2.0,0.0,97,0.00,,,0.00,,2013-07-19 10:43:00,
2013-07-19 06:52:00,74.0,73.0,29.98,SW,223,2.0,0.0,97,0.00,,,0.00,,2013-07-19 10:52:00,
2013-07-19 07:02:00,74.0,73.0,29.99,SW,224,0.0,0.0,97,0.00,,,0.00,,2013-07-19 11:02:00,
2013-07-19 07:22:00,75.0,74.0,29.99,SW,224,0.0,0.0,97,0.00,,,0.00,,2013-07-19 11:22:00,
2013-07-19 07:33:00,75.0,74.0,29.99,SW,224,0.0,0.0,97,0.00,,,0.00,,2013-07-19 11:33:00,
2013-07-19 07:43:00,75.0,74.0,29.99,SW,224,0.0,0.0,97,0.00,,,0.00,,2013-07-19 11:43:00,
2013-07-19 07:52:00,75.0,74.0,29.99,SW,224,0.0,0.0,97,0.00,,,0.00,,2013-07-19 11:52:00,
2013-07-19 08:01:00,75.0,74.0,29.99,SW,224,0.0,0.0,97,0.00,,,0.00,,2013-07-19 12:01:00,
2013-07-19 08:33:00,78.0,75.0,29.99,WSW,240,5.0,5.0,91,0.00,,,0.00,,2013-07-19 12:33:00,
2013-07-19 08:44:00,79.0,76.0,29.99,WSW,242,0.0,5.0,90,0.00,,,0.00,,2013-07-19 12:44:00,
2013-07-19 08:53:00,80.0,76.0,29.99,WSW,239,5.0,5.0,89,0.00,,,0.00,,2013-07-19 12:53:00,
2013-07-19 09:02:00,80.0,76.0,29.99,WSW,239,5.0,5.0,89,0.00,,,0.00,,2013-07-19 13:02:00,
2013-07-19 09:12:00,80.0,76.0,29.99,WSW,238,6.0,6.0,89,0.00,,,0.00,,2013-07-19 13:12:00,
2013-07-19 09:22:00,80.0,76.0,29.99,WSW,247,9.0,9.0,88,0.00,,,0.00,,2013-07-19 13:22:00,
2013-07-19 09:32:00,80.0,76.0,29.99,SW,222,4.0,8.0,88,0.00,,,0.00,,2013-07-19 13:32:00,
2013-07-19 09:53:00,80.0,76.0,29.99,SW,219,3.0,8.0,88,0.00,,,0.00,,2013-07-19 13:53:00,
2013-07-19 10:02:00,81.0,76.0,29.99,WSW,242,7.0,8.0,86,0.00,,,0.00,,2013-07-19 14:02:00,
2013-07-19 10:33:00,82.0,77.0,29.99,SW,222,6.0,8.0,85,0.00,,,0.00,,2013-07-19 14:33:00,
2013-07-19 10:43:00,82.0,77.0,29.99,SW,222,6.0,8.0,85,0.00,,,0.00,,2013-07-19 14:43:00,
2013-07-19 10:52:00,83.0,78.0,29.98,SW,220,1.0,15.0,84,0.00,,,0.00,,2013-07-19 14:52:00,
2013-07-19 11:02:00,82.0,77.0,29.98,SW,226,2.0,15.0,84,0.00,,,0.00,,2013-07-19 15:02:00,
2013-07-19 11:11:00,82.0,77.0,29.98,SW,226,2.0,15.0,84,0.00,,,0.00,,2013-07-19 15:11:00,
2013-07-19 11:32:00,83.0,77.0,29.98,SW,234,11.0,16.0,83,0.00,,,0.00,,2013-07-19 15:32:00,
2013-07-19 11:43:00,84.0,78.0,29.98,WSW,241,4.0,16.0,82,0.00,,,0.00,,2013-07-19 15:43:00,
2013-07-19 11:52:00,84.0,78.0,29.98,WSW,241,4.0,16.0,82,0.00,,,0.00,,2013-07-19 15:52:00,
2013-07-19 12:01:00,85.0,77.0,29.97,SW,222,17.0,17.0,78,0.00,,,0.00,,2013-07-19 16:01:00,
2013-07-19 12:11:00,85.0,77.0,29.97,SW,222,17.0,17.0,78,0.00,,,0.00,,2013-07-19 16:11:00,
2013-07-19 12:22:00,85.0,77.0,29.97,WSW,247,5.0,16.0,76,0.00,,,0.00,,2013-07-19 16:22:00,
2013-07-19 12:43:00,85.0,76.0,29.96,SW,231,5.0,9.0,75,0.00,,,0.00,,2013-07-19 16:43:00,
2013-07-19 12:52:00,85.0,76.0,29.96,SW,231,5.0,9.0,75,0.00,,,0.00,,2013-07-19 16:52:00,
2013-07-19 13:02:00,85.0,76.0,29.96,SW,231,5.0,9.0,75,0.00,,,0.00,,2013-07-19 17:02:00,
2013-07-19 13:32:00,85.0,75.0,29.95,SW,224,9.0,9.0,73,0.00,,,0.00,,2013-07-19 17:32:00,
2013-07-19 13:43:00,86.0,76.0,29.94,WSW,237,4.0,13.0,73,0.00,,,0.00,,2013-07-19 17:43:00,
2013-07-19 13:52:00,86.0,76.0,29.94,WSW,237,4.0,13.0,73,0.00,,,0.00,,2013-07-19 17:52:00,
2013-07-19 14:01:00,86.0,76.0,29.94,WSW,237,4.0,13.0,73,0.00,,,0.00,,2013-07-19 18:01:00,
2013-07-19 14:32:00,86.0,78.0,29.93,WSW,237,7.0,9.0,78,0.00,,,0.00,,2013-07-19 18:32:00,
2013-07-19 14:42:00,86.0,78.0,29.93,SW,223,4.0,9.0,77,0.00,,,0.00,,2013-07-19 18:42:00,
2013-07-19 14:52:00,85.0,77.0,29.93,SW,216,7.0,9.0,77,0.00,,,0.00,,2013-07-19 18:52:00,
2013-07-19 15:01:00,85.0,77.0,29.93,SW,216,7.0,9.0,77,0.00,,,0.00,,2013-07-19 19:01:00,
2013-07-19 15:11:00,84.0,77.0,29.92,WSW,245,7.0,9.0,80,0.00,,,0.00,,2013-07-19 19:11:00,
2013-07-19 15:22:00,83.0,77.0,29.91,WSW,240,7.0,9.0,81,0.00,,,0.00,,2013-07-19 19:22:00,
2013-07-19 15:32:00,83.0,77.0,29.91,WSW,239,8.0,8.0,81,0.00,,,0.00,,2013-07-19 19:32:00,
2013-07-19 15:43:00,83.0,77.0,29.91,WSW,239,8.0,8.0,81,0.00,,,0.00,,2013-07-19 19:43:00,
2013-07-19 16:01:00,82.0,76.0,29.90,SW,216,0.0,7.0,83,0.00,,,0.00,,2013-07-19 20:01:00,
2013-07-19 16:11:00,84.0,78.0,29.89,SSW,213,9.0,9.0,81,0.00,,,0.00,,2013-07-19 20:11:00,
2013-07-19 16:23:00,84.0,77.0,29.89,SW,224,8.0,8.0,79,0.00,,,0.00,,2013-07-19 20:23:00,
2013-07-19 16:43:00,84.0,78.0,29.89,WSW,239,7.0,13.0,81,0.00,,,0.00,,2013-07-19 20:43:00,
2013-07-19 16:52:00,84.0,77.0,29.88,SW,226,8.0,13.0,80,0.00,,,0.00,,2013-07-19 20:52:00,
2013-07-19 17:01:00,84.0,77.0,29.88,SW,223,12.0,13.0,80,0.00,,,0.00,,2013-07-19 21:01:00,
2013-07-19 17:32:00,82.0,76.0,29.87,SW,216,7.0,12.0,83,0.00,,,0.00,,2013-07-19 21:32:00,
2013-07-19 17:42:00,82.0,76.0,29.86,SW,214,3.0,12.0,82,0.00,,,0.00,,2013-07-19 21:42:00,
2013-07-19 17:52:00,82.0,76.0,29.86,SW,214,3.0,12.0,82,0.00,,,0.00,,2013-07-19 21:52:00,
2013-07-19 18:01:00,82.0,76.0,29.86,SW,214,3.0,12.0,82,0.00,,,0.00,,2013-07-19 22:01:00,
2013-07-19 18:11:00,82.0,76.0,29.85,SW,217,4.0,12.0,81,0.00,,,0.00,,2013-07-19 22:11:00,
2013-07-19 18:21:00,82.0,76.0,29.85,SW,225,5.0,12.0,81,0.00,,,0.00,,2013-07-19 22:21:00,
2013-07-19 18:32:00,82.0,76.0,29.85,SW,225,5.0,12.0,81,0.00,,,0.00,,2013-07-19 22:32:00,
2013-07-19 18:43:00,81.0,75.0,29.85,SW,225,9.0,16.0,81,0.00,,,0.00,,2013-07-19 22:43:00,
2013-07-19 18:52:00,81.0,75.0,29.85,SW,225,9.0,16.0,81,0.00,,,0.00,,2013-07-19 22:52:00,
2013-07-19 19:01:00,80.0,74.0,29.86,WSW,246,8.0,16.0,82,0.00,,,0.00,,2013-07-19 23:01:00,
2013-07-19 19:11:00,79.0,74.0,29.86,SW,229,6.0,16.0,84,0.00,,,0.00,,2013-07-19 23:11:00,
2013-07-19 19:33:00,79.0,74.0,29.86,SSW,212,0.0,10.0,85,0.00,,,0.00,,2013-07-19 23:33:00,
2013-07-19 19:43:00,79.0,74.0,29.86,SW,216,0.0,10.0,85,0.00,,,0.00,,2013-07-19 23:43:00,
2013-07-19 19:52:00,78.0,73.0,29.87,WSW,250,0.0,10.0,86,0.00,,,0.00,,2013-07-19 23:52:00,
2013-07-19 20:01:00,78.0,74.0,29.87,SW,219,10.0,10.0,87,0.00,,,0.00,,2013-07-20 00:01:00,
2013-07-19 20:11:00,77.0,72.0,29.87,WSW,258,0.0,10.0,86,0.00,,,0.00,,2013-07-20 00:11:00,
2013-07-19 20:22:00,77.0,72.0,29.87,WSW,258,0.0,10.0,86,0.00,,,0.00,,2013-07-20 00:22:00,
2013-07-19 20:32:00,77.0,73.0,29.88,SW,236,0.0,0.0,87,0.00,,,0.00,,2013-07-20 00:32:00,
2013-07-19 20:43:00,77.0,72.0,29.87,SW,216,10.0,0.0,85,0.00,,,0.00,,2013-07-20 00:43:00,
2013-07-19 20:52:00,77.0,72.0,29.88,WSW,250,5.0,0.0,85,0.00,,,0.00,,2013-07-20 00:52:00,
2013-07-19 21:01:00,77.0,72.0,29.88,WSW,250,5.0,0.0,85,0.00,,,0.00,,2013-07-20 01:01:00,
2013-07-19 21:11:00,77.0,72.0,29.88,WSW,250,5.0,0.0,85,0.00,,,0.00,,2013-07-20 01:11:00,
2013-07-19 21:22:00,77.0,72.0,29.88,WSW,250,5.0,0.0,85,0.00,,,0.00,,2013-07-20 01:22:00,
2013-07-19 21:32:00,78.0,73.0,29.88,WSW,245,5.0,5.0,86,0.00,,,0.00,,2013-07-20 01:32:00,
2013-07-19 21:52:00,78.0,73.0,29.89,SSW,208,9.0,9.0,86,0.00,,,0.00,,2013-07-20 01:52:00,
2013-07-19 22:02:00,78.0,73.0,29.89,SSW,208,9.0,9.0,86,0.00,,,0.00,,2013-07-20 02:02:00,
2013-07-19 22:11:00,77.0,73.0,29.89,West,261,0.0,5.0,87,0.00,,,0.00,,2013-07-20 02:11:00,
2013-07-19 22:22:00,77.0,73.0,29.89,West,261,0.0,5.0,87,0.00,,,0.00,,2013-07-20 02:22:00,
2013-07-19 22:33:00,77.0,73.0,29.88,SW,214,6.0,7.0,87,0.00,,,0.00,,2013-07-20 02:33:00,
2013-07-19 22:44:00,77.0,73.0,29.88,WSW,243,0.0,7.0,87,0.00,,,0.00,,2013-07-20 02:44:00,
2013-07-19 22:52:00,77.0,73.0,29.88,WSW,243,0.0,7.0,87,0.00,,,0.00,,2013-07-20 02:52:00,
2013-07-19 23:02:00,77.0,73.0,29.88,WNW,285,0.0,7.0,88,0.00,,,0.00,,2013-07-20 03:02:00,
2013-07-19 23:12:00,77.0,73.0,29.88,WNW,285,0.0,7.0,88,0.00,,,0.00,,2013-07-20 03:12:00,
2013-07-19 23:22:00,77.0,73.0,29.87,SW,231,4.0,7.0,88,0.00,,,0.00,,2013-07-20 03:22:00,
2013-07-19 23:44:00,77.0,74.0,29.87,SW,223,5.0,10.0,89,0.00,,,0.00,,2013-07-20 03:44:00,
2013-07-19 23:53:00,77.0,74.0,29.87,SW,223,5.0,10.0,89,0.00,,,0.00,,2013-07-20 03:53:00,